Location: ??????
(41.3747°N, 22.5491°E)
Time: 05:41:40
(UTC+00:00)

USA 215 - Pass Details

Date: 01 December 2020
Orbit: 1098 x 1110 km, 123.0° (Epoch: 14 January)

Event Time Altitude Azimuth Distance (km) Brightness Sun altitude
Exits shadow 16:59:20 34° 52° (NE) 1,754 3.8 -21.6°
Maximum altitude 17:02:33 83° 138° (SE) 1,121 3.2 -22.2°
Drops below altitude 10° 17:09:08 10° 226° (SW) 2,966 6.2 -23.4°
Sets 17:11:36 0° 227° (SW) 3,922 7.0 -23.9°
